SCP
0 0 0 0 0 0 0 0 0 0 0 0 0 0 0 0 0 0 0 0 0 0 0 0 1 1 1 2 2 2 2 2 2 2 2 2 2 2 1 1 1 1 1
0 0 0 0 0 0 0 0 0 0 0 0 0 0 0 0 0 0 0 0 0 0 0 0 0 1 1 1 2 2 2 2 2 2 2 2 2 2 2 1 1 1 1
0 0 0 0 0 0 0 0 0 0 0 0 0 0 0 0 0 0 0 0 0 0 0 0 0 0 0 1 1 1 2 2 3 3 3 3 3 2 2 2 2 2 1
0 0 0 0 0 0 0 0 0 0 0 0 0 0 0 0 0 0 0 0 0 0 0 0 0 0 0 0 0 1 1 2 2 2 3 3 3 3 3 2 2 2 2
0 0 0 0 0 0 0 0 0 0 0 0 0 0 0 0 0 0 0 0 0 0 0 0 0 0 0 0 0 0 1 1 1 1 2 3 3 3 3 3 3 2 2
0 0 0 0 0 0 0 0 0 0 0 0 0 0 0 0 0 0 0 0 0 0 0 0 0 0 0 0 0 0 0 0 1 1 1 2 3 3 4 3 3 3 2
0 0 0 0 0 0 0 0 0 0 0 0 0 0 0 0 0 0 0 0 0 0 0 0 0 0 0 0 0 0 0 0 0 0 1 1 2 3 3 3 3 3 3
0 0 0 0 0 0 0 0 0 0 0 0 0 0 0 0 0 0 0 0 0 0 0 0 0 0 0 0 0 0 0 0 0 0 0 1 1 1 2 2 3 3 3
0 0 0 0 0 0 0 0 0 0 0 0 0 0 0 0 0 0 0 0 0 0 0 0 0 0 0 0 0 0 0 0 0 0 0 0 0 1 1 1 2 2 2
0 0 0 0 0 0 0 0 0 0 0 0 0 0 0 0 0 0 0 0 0 0 0 0 0 0 0 0 0 0 0 0 0 0 0 0 0 0 0 1 1 1 1
0 0 0 0 0 0 0 0 0 0 0 0 0 0 0 0 0 0 0 0 0 0 0 0 0 0 0 0 0 0 0 0 0 0 0 0 0 0 0 0 1 1 1
0 0 0 0 0 0 0 0 0 0 0 0 0 0 0 0 0 0 0 0 0 0 0 0 0 0 0 0 0 0 0 0 0 0 0 0 0 0 0 0 0 0 0
0 0 0 0 0 0 0 0 0 0 0 0 0 0 0 0 0 0 0 0 0 0 0 0 0 0 0 0 0 0 0 0 0 0 0 0 0 0 0 0 0 0 0
0 0 0 0 0 0 0 0 0 0 0 0 0 0 0 0 0 0 0 0 0 0 0 0 0 0 0 0 0 0 0 0 0 0 0 0 0 0 0 0 0 0 0
0 0 0 0 0 0 0 0 0 0 0 0 0 0 0 0 0 0 0 0 0 0 0 0 0 0 0 0 0 0 0 0 0 0 0 0 0 0 0 0 0 0 0
0 0 0 0 0 0 0 0 0 0 0 0 0 0 0 0 0 0 0 0 0 0 0 0 0 0 0 0 0 0 0 0 0 0 0 0 0 0 0 0 0 0 0
0 0 0 0 0 0 0 0 0 0 0 0 0 0 0 0 0 0 0 0 0 0 0 0 0 0 0 0 0 0 0 0 0 0 0 0 0 0 0 0 0 0 0
0 0 0 0 0 0 0 0 0 0 0 0 0 0 0 0 0 0 0 0 0 0 0 0 0 0 0 0 0 0 0 0 0 0 0 0 0 0 0 0 0 0 0
0 0 0 0 0 0 0 0 0 0 0 0 0 0 0 0 0 0 0 0 0 0 0 0 0 0 0 0 0 0 0 0 0 0 0 0 0 0 0 0 0 0 0
0 0 0 0 0 0 0 0 0 0 0 0 0 0 0 0 0 0 0 0 0 0 0 0 0 0 0 0 0 0 0 0 0 0 0 0 0 0 0 0 0 0 0
0 0 0 0 0 0 0 0 0 0 0 0 0 0 0 0 0 0 0 0 0 0 0 0 0 0 0 0 0 0 0 0 0 0 0 0 0 0 0 0 0 0 0
0 0 0 0 0 0 0 0 0 0 0 0 0 0 0 0 0 0 0 0 0 0 0 0 -0 -0 0 0 -0 -0 -0 -0 -0 -0 0 0 0 0 0 0 0 0 0
0 0 0 0 0 0 0 0 0 0 0 0 0 0 0 0 0 0 0 0 0 0 0 0 0 0 0 0 -0 -0 -0 -0 0 0 0 0 0 0 0 0 0 0 0
0 0 0 0 0 0 0 0 0 0 0 0 0 0 0 0 0 0 0 0 0 0 0 0 0 0 0 0 0 0 0 0 0 0 0 0 0 0 0 0 0 0 0
0 0 0 0 0 0 0 0 0 0 0 0 0 0 0 0 0 0 0 0 0 0 0 0 0 0 0 0 0 0 0 0 0 0 0 0 0 0 0 0 0 0 0
0 0 0 0 0 0 0 0 0 0 0 0 0 0 0 0 0 0 0 0 0 0 0 0 0 0 0 0 0 0 0 0 0 0 0 0 0 0 0 0 0 0 0
Wind_Speed
2 2 1 2 4 3 3 3 4 3 5 6 5 6 7 7 7 6 1 9 6 5 5 5 5 5 5 4 6 8 10 12 13 13 12 12 11 11 11 11 12 13 15
1 2 2 2 3 3 4 5 5 4 5 5 6 6 8 9 6 6 7 3 7 5 4 4 4 5 6 7 7 7 7 9 10 12 12 13 13 13 13 13 13 14 14
1 1 1 1 2 3 2 3 4 4 4 5 6 7 7 7 8 7 7 7 4 6 4 1 3 4 5 6 8 8 9 9 9 10 11 12 14 15 15 15 15 14 14
3 1 2 3 3 3 3 3 5 6 5 6 7 7 7 6 8 7 8 7 7 6 5 5 3 6 8 9 10 11 11 11 11 11 12 13 13 15 16 17 17 16 16
5 4 4 5 3 4 4 5 5 6 6 6 8 7 7 7 7 9 9 9 8 7 9 5 7 10 11 12 12 13 14 15 15 14 14 15 15 14 16 17 18 18 18
7 5 5 6 5 4 4 5 4 3 4 5 8 8 8 8 7 8 9 9 7 9 10 11 9 9 11 11 12 14 16 17 17 18 18 18 17 15 15 16 18 19 20
7 6 5 5 4 4 4 4 4 5 6 5 8 10 10 11 11 8 8 8 10 10 10 11 10 10 8 11 13 15 15 16 18 19 20 19 18 15 15 16 18 20 21
6 5 5 3 3 2 2 4 5 7 7 5 7 10 11 10 8 6 5 7 10 10 11 12 12 10 11 10 8 11 14 16 18 20 21 21 20 18 17 18 18 19 21
5 4 3 3 3 5 4 5 6 6 7 7 5 7 9 9 10 7 8 8 9 10 11 11 12 11 11 10 10 11 11 12 16 20 22 23 21 20 19 19 19 20 21
3 3 3 4 4 5 4 5 5 6 5 6 5 4 6 9 9 9 8 9 10 11 12 11 12 12 11 10 8 10 11 12 15 18 19 20 20 19 19 18 18 20 21
2 4 4 4 3 3 5 5 5 6 6 6 7 6 6 7 9 11 12 11 11 11 11 11 11 11 12 11 9 8 4 10 14 16 17 18 18 18 18 18 18 18 20
1 4 3 3 3 4 3 4 4 4 4 5 6 6 6 7 8 10 12 12 12 11 12 11 12 11 11 10 11 5 6 12 14 14 14 14 15 15 16 17 18 18 19
1 2 3 3 4 3 4 4 4 4 4 4 6 6 7 8 8 9 11 12 14 12 13 12 10 9 9 9 9 6 9 11 12 12 12 13 14 14 15 16 17 17 16
2 3 3 4 4 5 5 4 6 5 5 6 8 8 8 9 8 9 11 12 14 13 13 14 11 11 10 9 7 3 10 9 10 11 12 13 14 15 16 16 16 15 13
3 3 4 5 5 6 6 7 7 7 7 9 10 10 9 9 9 9 9 10 12 14 14 14 13 12 9 9 8 10 12 9 10 12 13 13 14 15 16 16 15 14 12
3 5 5 6 6 7 7 8 9 8 9 10 10 12 12 11 10 10 10 10 11 13 15 14 13 14 14 12 11 13 13 11 13 16 16 14 13 14 15 16 16 15 13
4 6 6 7 8 9 9 9 11 12 13 13 13 14 15 15 12 12 11 12 12 12 14 14 13 14 16 15 13 12 12 11 11 16 16 13 13 14 13 13 13 13 13
6 7 8 9 10 11 11 12 14 14 15 16 16 16 17 14 16 14 13 14 14 14 15 17 14 14 15 14 14 14 13 11 12 8 10 11 13 13 12 10 10 10 10
8 10 11 12 13 13 13 14 14 15 15 16 16 16 17 17 17 15 15 15 14 14 13 14 14 12 11 12 14 14 14 11 12 9 8 12 14 14 13 11 11 11 10
10 11 12 13 13 14 14 13 13 13 14 14 14 15 17 17 17 16 14 15 14 14 13 12 12 12 11 12 12 11 10 9 9 9 9 8 9 12 13 13 13 14 13
9 10 10 10 11 10 8 10 12 14 14 15 15 16 17 18 20 16 13 14 14 12 11 11 12 12 12 11 10 8 9 9 9 8 8 7 7 8 9 13 15 14 14
7 7 8 9 9 7 9 10 13 15 15 15 15 14 14 15 16 17 18 20 19 16 14 13 12 14 16 14 10 8 8 9 7 5 7 6 4 5 6 6 3 7 14
6 7 8 9 9 6 6 10 13 15 15 13 13 12 11 11 15 14 14 16 17 19 20 17 16 16 16 15 13 12 10 9 7 3 3 4 4 6 6 4 5 13 19
6 7 7 8 9 5 2 9 16 15 14 13 13 13 12 13 13 13 13 14 15 16 16 13 12 14 14 14 13 12 10 6 2 2 3 3 3 4 4 4 7 15 21
6 7 7 7 8 6 5 10 15 12 12 14 14 14 14 13 13 14 14 14 14 14 12 11 13 14 15 14 9 5 4 3 3 3 3 2 2 3 4 4 8 17 21
6 7 7 7 8 8 7 10 13 9 11 12 12 13 14 13 14 14 13 13 13 12 10 10 8 7 7 5 4 1 0 1 0 1 3 2 2 2 3 2 5 9 12
Wind_Direction
222 208 234 283 291 309 266 275 294 294 282 264 276 282 285 285 282 286 223 100 78 58 48 38 26 11 351 317 274 253 244 241 239 237 235 233 232 229 221 215 207 201 196
290 271 250 281 306 317 340 324 322 303 291 309 296 295 290 291 287 287 289 148 116 96 66 44 31 18 1 344 327 309 281 262 253 245 240 235 231 229 226 221 216 210 205
40 279 319 288 9 350 335 311 318 303 297 296 291 295 290 289 293 286 280 283 240 156 143 86 357 338 327 320 316 311 302 294 283 271 260 250 240 233 229 225 220 215 210
51 8 34 41 16 356 351 351 329 321 322 310 307 303 296 289 275 274 268 263 276 282 224 182 263 287 287 286 287 290 291 290 288 282 275 265 253 241 233 228 224 219 213
59 51 47 39 12 16 10 354 4 336 323 320 306 292 289 289 287 272 271 272 270 273 283 236 232 254 267 275 280 284 284 283 281 278 275 269 261 250 239 233 227 222 217
62 55 67 41 18 24 20 17 356 342 317 309 300 294 279 272 267 265 263 263 263 266 273 287 281 257 248 263 275 281 283 285 283 279 274 271 265 259 248 239 232 227 221
67 50 54 54 28 40 15 347 326 296 278 296 290 283 272 257 250 254 257 269 278 286 290 288 284 291 285 273 265 268 275 283 288 287 281 276 272 265 256 247 239 231 225
64 68 51 35 25 333 312 329 323 311 307 304 303 302 293 282 259 262 275 282 295 301 297 294 293 289 285 286 282 281 280 281 283 284 281 278 276 270 263 256 248 239 230
71 56 41 5 338 310 349 338 331 329 323 313 320 317 313 319 332 301 293 292 293 291 294 295 290 286 284 283 283 273 279 289 285 283 281 277 273 271 267 262 255 247 238
47 37 19 17 355 355 11 333 24 327 322 320 329 314 307 317 303 305 298 295 292 285 283 285 287 285 279 274 272 274 271 276 284 284 282 281 278 276 274 272 267 259 250
45 27 29 28 12 8 18 359 352 338 328 333 328 318 310 294 284 284 294 296 289 286 286 283 281 281 279 272 269 265 274 284 286 286 284 282 282 281 281 278 277 271 262
58 53 27 13 351 360 358 344 332 330 345 339 316 312 308 304 303 301 298 295 292 292 293 290 282 274 270 267 265 265 274 280 281 284 285 285 283 283 285 285 281 278 270
22 66 352 337 342 344 324 324 308 327 313 312 298 307 310 300 298 299 298 299 299 297 294 285 280 278 278 275 267 228 254 270 276 278 282 286 286 283 283 284 283 280 277
349 359 311 317 322 315 307 307 294 291 298 295 291 291 288 291 300 301 303 304 301 299 296 295 298 292 286 281 272 223 269 261 264 273 281 284 285 282 279 277 276 276 278
325 319 307 300 302 302 302 295 286 289 287 285 291 292 290 296 294 294 297 298 297 295 291 295 293 297 298 289 281 274 274 262 253 265 273 276 280 278 275 269 263 261 262
347 322 309 301 294 294 293 290 288 287 290 286 287 290 290 289 294 293 288 285 282 281 284 285 286 287 292 288 278 275 272 263 247 251 255 260 270 275 272 265 253 246 245
322 308 307 301 295 291 289 287 285 290 286 288 288 289 292 294 294 294 292 287 283 279 278 279 277 277 280 282 284 283 280 272 260 241 234 241 258 267 267 263 252 244 242
298 300 296 291 288 288 288 286 287 289 290 292 293 295 295 296 295 294 292 287 284 279 275 277 276 276 277 279 279 276 275 273 273 260 216 232 249 254 254 255 255 251 248
292 292 290 288 288 290 291 290 290 292 294 295 298 298 298 298 296 294 292 289 287 283 279 278 279 279 277 275 280 277 278 280 284 279 228 229 238 243 247 248 249 250 249
294 294 295 297 300 302 301 305 309 307 303 301 299 297 295 295 294 295 293 291 287 284 282 282 282 282 278 276 276 281 287 290 290 284 263 248 236 236 242 245 246 248 248
310 314 317 318 319 315 347 349 327 311 308 303 299 296 298 301 299 292 285 285 287 286 286 284 284 285 283 282 283 291 289 289 282 264 254 241 231 233 230 232 234 240 250
352 346 341 335 331 354 32 352 323 312 305 302 303 306 304 297 293 290 281 276 276 281 286 287 287 285 285 287 288 281 274 272 267 235 239 243 235 249 256 256 283 289 276
355 344 341 337 334 18 24 334 322 309 303 306 305 299 296 297 298 291 289 287 281 276 273 275 278 279 283 283 282 274 262 258 255 200 197 243 229 244 252 263 294 289 283
348 342 342 338 329 352 8 319 324 311 308 306 302 299 296 293 290 291 292 288 284 282 279 278 278 282 283 280 270 262 261 256 217 164 190 244 239 254 270 288 301 304 300
352 340 349 337 332 340 0 325 326 318 310 311 311 309 303 295 287 283 286 284 284 284 281 279 284 286 290 288 273 242 214 203 202 171 176 247 266 269 268 290 320 321 318
352 343 347 337 333 336 344 323 327 320 312 312 309 305 299 294 294 290 290 287 286 291 302 305 301 302 311 346 14 45 148 205 175 149 166 234 266 282 279 303 322 333 332